Mount Pocono, PA

10:57 PM EST on February 12, 2016 (GMT -0500)
Pocono Mountains Municipal

Weather History for KMPO - August, 2013

Change the Weather History Date:

Saturday, August 17, 2013

  Actual Average Record
Temperature  
Mean Temperature 62 °F 67 °F  
Max Temperature 74 °F 77 °F 89 °F (1997)
Min Temperature 50 °F 57 °F 35 °F (1979)
Degree Days  
Heating Degree Days 3 1  
Month to date heating degree days 44 17  
Since 1 June heating degree days 131 139  
Since 1 July heating degree days 55 39  
Cooling Degree Days 0 3  
Month to date cooling degree days 20 65  
Year to date cooling degree days 359 267  
Since 1 June cooling degree days 327 248  
Growing Degree Days 12 (Base 50)    
Moisture  
Dew Point 53 °F    
Average Humidity 70    
Maximum Humidity 93    
Minimum Humidity 46    
Precipitation  
Precipitation 0.00 in 0.15 in 2.17 in (1966)
Month to date precipitation 4.00 2.61  
Year to date precipitation 34.01 29.13  
Sea Level Pressure  
Sea Level Pressure 30.29 in    
Wind  
Wind Speed 2 mph (SE)    
Max Wind Speed 10 mph    
Max Gust Speed 16 mph    
Visibility 10 miles    
Events      
T = Trace of Precipitation, MM = Missing Value Source: NWS Daily Summary

Daily Weather History Graph

Daily Weather History Graph

Search for Another Location

Airport or City:

Trip Planner

Search our weather history database for the weather conditions in past years. The results will help you decide how hot, cold, wet, or windy it might be!

Date:

Astronomy

Aug. 17, 2013 Rise Set
Actual Time 6:13 AM EDT 7:57 PM EDT
Civil Twilight 5:43 AM EDT 8:26 PM EDT
Nautical Twilight 5:08 AM EDT 9:01 PM EDT
Astronomical Twilight 4:29 AM EDT 9:39 PM EDT
Moon 5:11 PM EDT (8/17) 2:12 AM EDT (8/17)
Length of Visible Light 14h 42m
Length of Day
13h 43m
Waxing Gibbous, 84% of the Moon is Illuminated
Aug 17
Waxing Gibbous
Aug 20
Full
Aug 28
Last Quarter
Sep 5
New
Sep 12
First Quarter

Hourly Weather History & Observations

Time (EDT) Temp. Dew Point Humidity Pressure Visibility Wind Dir Wind Speed Gust Speed Precip Events Conditions
12:53 AM 53.1 °F - N/A% 30.25 in 10.0 mi Calm Calm - N/A   Clear
1:53 AM 52.0 °F - N/A% 30.25 in 10.0 mi Calm Calm - N/A   Clear
2:53 AM 52.0 °F - N/A% 30.26 in 8.0 mi Calm Calm - N/A   Clear
3:53 AM 51.1 °F - N/A% 30.27 in 8.0 mi NW 3.5 mph - N/A   Clear
4:53 AM 50.0 °F - N/A% 30.27 in 10.0 mi Calm Calm - N/A   Clear
5:53 AM 51.1 °F - N/A% 30.28 in 10.0 mi Calm Calm - N/A   Clear
6:53 AM 52.0 °F - N/A% 30.30 in 9.0 mi Calm Calm - N/A   Clear
7:53 AM 57.9 °F 52.0 °F 81% 30.30 in 10.0 mi NNW 3.5 mph - N/A   Clear
8:53 AM 64.9 °F 52.0 °F 63% 30.31 in 10.0 mi NNW 4.6 mph - N/A   Clear
9:53 AM 69.1 °F 50.0 °F 51% 30.31 in 10.0 mi Calm Calm - N/A   Clear
10:53 AM 69.1 °F 55.0 °F 61% 30.32 in 10.0 mi Variable 3.5 mph - N/A   Clear
11:53 AM 72.0 °F 52.0 °F 49% 30.31 in 10.0 mi Variable 5.8 mph - N/A   Clear
12:53 PM 71.1 °F 52.0 °F 51% 30.31 in 10.0 mi South 4.6 mph - N/A   Scattered Clouds
1:53 PM 71.1 °F 52.0 °F 51% 30.30 in 10.0 mi Calm Calm - N/A   Overcast
2:53 PM 73.0 °F 53.1 °F 49% 30.30 in 10.0 mi ESE 8.1 mph - N/A   Partly Cloudy
3:53 PM 73.0 °F 51.1 °F 46% 30.29 in 10.0 mi Variable 3.5 mph - N/A   Partly Cloudy
4:53 PM 72.0 °F 52.0 °F 49% 30.29 in 10.0 mi SSE 5.8 mph - N/A   Clear
5:53 PM 71.1 °F 52.0 °F 51% 30.29 in 10.0 mi SSE 4.6 mph - N/A   Clear
6:53 PM 68.0 °F 55.9 °F 65% 30.30 in 10.0 mi Calm Calm - N/A   Clear
7:53 PM 66.0 °F 55.0 °F 68% 30.30 in 10.0 mi Calm Calm - N/A   Clear
8:53 PM 61.0 °F 55.9 °F 83% 30.30 in 10.0 mi Calm Calm - N/A   Partly Cloudy
9:53 PM 59.0 °F 55.9 °F 90% 30.31 in 8.0 mi Calm Calm - N/A   Clear
10:53 PM 57.9 °F 55.0 °F 90% 30.30 in 8.0 mi Calm Calm - N/A   Clear
11:53 PM 57.9 °F 54.0 °F 87% 30.30 in 10.0 mi Calm Calm - N/A   Clear